FW4608 Weather Reports


time (UTC)temp
C
wind
direction
speed
KPH
gust
KPH
rain 1hr
cm
rain 24hr
cm
rain mn
cm
humidity
%
barometer
mb
20260902014522 26 323 0.0 0.0 0.00 0.03 0.03 89 1016.7
20260902014018 26 323 0.0 0.0 0.00 0.03 0.03 89 1016.7
20260902013518 26 323 0.0 0.0 0.00 0.03 0.03 89 1016.6
20260902013018 26 323 0.0 0.0 0.00 0.03 0.03 89 1016.6
20260902012517 26 323 0.0 0.0 0.00 0.03 0.03 88 1016.6
20260902012019 26 323 0.0 0.0 0.00 0.03 0.03 88 1016.6
20260902011515 26 323 0.0 0.0 0.00 0.03 0.03 88 1016.6
20260902011015 26 323 0.0 0.0 0.00 0.03 0.03 88 1016.6
20260902010513 26 323 0.0 1.6 0.00 0.03 0.03 88 1016.5
20260902010014 27 297 0.0 1.6 0.00 0.03 0.03 87 1016.5
20260902005616 27 297 0.0 0.0 0.00 0.03 0.03 87 1016.5
20260902005013 27 297 0.0 0.0 0.00 0.03 0.03 87 1016.6
20260902004518 27 297 0.0 0.0 0.00 0.03 0.03 87 1016.4
20260902004011 27 297 0.0 0.0 0.00 0.03 0.03 87 1016.5
20260902003512 27 297 0.0 0.0 0.00 0.03 0.03 86 1016.4
20260902003011 27 224 0.0 1.6 0.00 0.03 0.03 86 1016.3
20260902002510 27 224 0.0 1.6 0.00 0.03 0.03 86 1016.3
20260902002009 27 224 0.0 1.6 0.00 0.03 0.03 86 1016.2
20260902001509 27 281 0.0 1.6 0.00 0.03 0.03 86 1016.4
20260902001008 27 281 0.0 0.0 0.00 0.03 0.03 85 1016.4
20260902000509 27 281 0.0 0.0 0.00 0.03 0.03 85 1016.3
20260902000013 27 281 0.0 0.0 0.00 0.03 0.03 85 1016.3
20260901235507 27 281 0.0 1.6 0.00 0.03 0.03 85 1016.4
20260901235006 27 270 0.0 1.6 0.00 0.03 0.03 85 1016.3
20260901234506 27 243 0.0 1.6 0.00 0.03 0.03 84 1016.3
20260901234005 28 290 0.0 1.6 0.00 0.03 0.03 84 1016.4
20260901233505 28 317 0.0 1.6 0.00 0.03 0.03 84 1016.3
20260901233003 28 317 0.0 1.6 0.00 0.03 0.03 83 1016.2
20260901232503 28 318 0.0 3.2 0.00 0.03 0.03 83 1016.2
20260901232006 28 321 0.0 3.2 0.00 0.03 0.03 83 1016.3
20260901231503 28 217 0.0 3.2 0.00 0.03 0.03 82 1016.3
20260901231001 28 6 0.0 4.8 0.00 0.03 0.03 82 1016.2
20260901230501 28 271 0.0 4.8 0.00 0.03 0.03 81 1016.3
20260901230002 29 81 0.0 4.8 0.00 0.03 0.03 81 1016.3
20260901225559 29 276 0.0 3.2 0.00 0.03 0.03 80 1016.2
20260901225059 29 344 0.0 3.2 0.00 0.03 0.03 79 1016.1
20260901224600 29 233 0.0 1.6 0.00 0.03 0.03 79 1016.1
20260901224058 30 308 0.0 1.6 0.00 0.03 0.03 78 1016.0
20260901223559 30 218 0.0 1.6 0.00 0.03 0.03 78 1016.0
20260901223056 30 310 0.0 3.2 0.00 0.03 0.03 77 1016.1
20260901222555 30 317 0.0 3.2 0.00 0.03 0.03 76 1016.1
20260901222055 30 302 0.0 1.6 0.00 0.03 0.03 78 1016.1
20260901221555 30 295 0.0 3.2 0.00 0.03 0.03 78 1015.9
20260901221053 30 309 0.0 3.2 0.00 0.03 0.03 76 1016.1
20260901220654 31 226 0.0 3.2 0.00 0.03 0.03 75 1016.0
20260901220054 31 306 0.0 3.2 0.00 0.03 0.03 75 1016.0
20260901215552 31 5 0.0 6.4 0.00 0.03 0.03 77 1015.8
20260901215050 31 293 0.0 6.4 0.00 0.03 0.03 78 1016.0
20260901214553 31 27 0.0 6.4 0.00 0.03 0.03 78 1016.1
20260901214050 31 70 0.0 6.4 0.00 0.03 0.03 77 1016.1
20260901213553 32 330 1.6 6.4 0.00 0.03 0.03 75 1016.0
20260901213049 32 252 0.0 3.2 0.00 0.03 0.03 77 1016.0
20260901212547 31 157 0.0 3.2 0.00 0.03 0.03 77 1016.1
20260901212049 31 316 0.0 4.8 0.00 0.03 0.03 77 1016.0
20260901211546 31 92 0.0 4.8 0.00 0.03 0.03 77 1016.0
20260901211045 31 323 0.0 4.8 0.00 0.03 0.03 76 1015.9
20260901210545 31 328 0.0 3.2 0.00 0.03 0.03 75 1016.0
20260901210046 32 323 0.0 4.8 0.00 0.03 0.03 75 1015.9
20260901205544 32 290 0.0 4.8 0.00 0.03 0.03 74 1016.1
20260901205043 32 267 0.0 4.8 0.00 0.03 0.03 73 1016.1
20260901204543 32 311 0.0 4.8 0.00 0.03 0.03 74 1016.0
20260901204043 32 96 0.0 3.2 0.00 0.03 0.03 75 1016.1
20260901203541 32 292 0.0 3.2 0.00 0.03 0.03 74 1016.2
20260901203043 31 329 0.0 4.8 0.00 0.03 0.03 76 1016.2
20260901202543 31 151 0.0 4.8 0.00 0.03 0.03 76 1016.3
20260901202043 31 247 0.0 6.4 0.00 0.03 0.03 77 1016.4
20260901201538 31 248 0.0 9.7 0.00 0.03 0.03 77 1016.5
20260901201039 31 99 1.6 6.4 0.00 0.03 0.03 76 1016.6
20260901200538 31 300 0.0 6.4 0.00 0.03 0.03 79 1016.5
20260901200057 31 153 0.0 6.4 0.00 0.03 0.03 77 1016.6
20260901195536 31 90 0.0 4.8 0.00 0.03 0.03 76 1016.6
20260901195035 31 243 0.0 4.8 0.00 0.03 0.03 78 1016.6
20260901194544 30 309 0.0 4.8 0.00 0.03 0.03 77 1016.7
20260901194036 31 101 0.0 3.2 0.00 0.03 0.03 79 1016.6
20260901193534 31 269 0.0 4.8 0.00 0.03 0.03 78 1016.6
20260901193033 31 258 0.0 3.2 0.00 0.03 0.03 78 1016.5
20260901192532 31 293 0.0 4.8 0.00 0.03 0.03 78 1016.4
20260901192031 31 278 0.0 6.4 0.00 0.03 0.03 76 1016.4
20260901191539 31 243 0.0 4.8 0.00 0.03 0.03 77 1016.4
20260901191029 31 92 0.0 3.2 0.00 0.03 0.03 75 1016.3
20260901190530 31 117 0.0 4.8 0.00 0.03 0.03 76 1016.3
20260901190039 31 52 0.0 4.8 0.00 0.03 0.03 74 1016.3
20260901185531 32 305 0.0 4.8 0.00 0.03 0.03 73 1016.3
20260901185029 32 116 0.0 4.8 0.00 0.03 0.03 73 1016.2
20260901184531 33 293 0.0 6.4 0.00 0.03 0.03 71 1016.3
20260901184027 33 319 1.6 6.4 0.00 0.03 0.03 74 1016.3
20260901183525 32 306 0.0 4.8 0.00 0.03 0.03 73 1016.4
20260901183025 32 349 0.0 4.8 0.00 0.03 0.03 75 1016.6
20260901182524 32 185 0.0 11.3 0.00 0.03 0.03 75 1016.6
20260901182024 32 19 1.6 11.3 0.00 0.03 0.03 73 1016.7
20260901181528 32 302 0.0 4.8 0.00 0.03 0.03 73 1016.7
20260901181023 32 245 0.0 8.0 0.00 0.03 0.03 73 1016.8
20260901180522 32 315 0.0 8.0 0.00 0.03 0.03 75 1016.9
20260901180022 31 111 0.0 3.2 0.00 0.03 0.03 74 1016.9
20260901175525 31 320 0.0 6.4 0.00 0.03 0.03 74 1017.0
20260901175020 32 255 0.0 4.8 0.00 0.03 0.03 73 1016.9
20260901174534 32 320 0.0 4.8 0.00 0.03 0.03 73 1017.1
20260901174026 33 277 0.0 4.8 0.00 0.03 0.03 69 1017.2
20260901173517 33 161 0.0 4.8 0.00 0.03 0.03 72 1017.1
20260901173023 33 240 0.0 4.8 0.00 0.03 0.03 73 1017.1
20260901172513 33 6 0.0 4.8 0.00 0.03 0.03 73 1017.2
20260901172011 33 134 0.0 4.8 0.00 0.03 0.03 73 1017.2
20260901171509 33 277 0.0 6.4 0.00 0.03 0.03 72 1017.4
20260901171007 33 129 1.6 8.0 0.00 0.03 0.03 70 1017.3
20260901170509 33 342 0.0 6.4 0.00 0.03 0.03 75 1017.5
20260901170005 33 195 0.0 6.4 0.00 0.03 0.03 71 1017.5
20260901165505 33 95 0.0 6.4 0.00 0.03 0.03 73 1017.6
20260901165003 33 108 0.0 4.8 0.00 0.03 0.03 75 1017.7
20260901164601 32 162 0.0 4.8 0.00 0.03 0.03 76 1017.7
20260901164058 32 293 0.0 4.8 0.00 0.03 0.03 77 1017.7
20260901163557 31 148 0.0 3.2 0.00 0.03 0.03 79 1017.7
20260901163059 32 255 0.0 4.8 0.00 0.03 0.03 77 1017.8
20260901162553 31 130 0.0 4.8 0.00 0.03 0.03 77 1017.7
20260901162052 31 176 0.0 3.2 0.03 0.03 0.03 80 1017.7
20260901161553 31 319 0.0 3.2 0.03 0.03 0.03 80 1017.7
20260901161051 30 129 0.0 3.2 0.03 0.03 0.03 81 1017.7
20260901160555 30 53 0.0 4.8 0.03 0.03 0.03 81 1017.8
20260901160055 30 319 0.0 4.8 0.03 0.03 0.03 81 1017.8
20260901155550 30 334 0.0 4.8 0.03 0.03 0.03 83 1017.8
20260901155050 29 323 0.0 3.2 0.03 0.03 0.03 84 1017.9
20260901154550 29 257 0.0 1.6 0.03 0.03 0.03 84 1017.8
20260901154049 29 198 0.0 0.0 0.03 0.03 0.03 85 1017.8
20260901153549 29 170 0.0 1.6 0.03 0.03 0.03 85 1018.0
20260901153047 30 151 0.0 1.6 0.03 0.03 0.03 83 1018.1
20260901152545 30 300 0.0 3.2 0.03 0.03 0.03 82 1018.0
20260901152044 31 63 0.0 4.8 0.00 0.00 0.00 81 1018.1
20260901151544 31 172 0.0 4.8 0.00 0.00 0.00 80 1017.9
20260901151043 31 260 0.0 1.6 0.00 0.00 0.00 81 1017.9
20260901150541 31 276 0.0 1.6 0.00 0.00 0.00 78 1017.9
20260901150041 31 150 0.0 3.2 0.00 0.00 0.00 79 1017.9
20260901145542 31 169 0.0 3.2 0.00 0.00 0.00 78 1017.8
20260901145039 31 321 0.0 3.2 0.00 0.00 0.00 79 1017.8
20260901144537 31 338 0.0 3.2 0.00 0.00 0.00 81 1017.7
20260901144036 30 212 0.0 3.2 0.00 0.00 0.00 81 1017.7
20260901143534 30 169 0.0 1.6 0.00 0.00 0.00 83 1017.7
20260901143132 30 214 0.0 1.6 0.00 0.00 0.00 84 1017.7
20260901142530 30 76 0.0 3.2 0.00 0.00 0.00 83 1017.6
20260901142027 30 92 0.0 3.2 0.00 0.00 0.00 84 1017.6
20260901141526 30 325 0.0 3.2 0.00 0.00 0.00 85 1017.7
20260901141025 29 318 0.0 1.6 0.00 0.00 0.00 86 1017.6
20260901140522 28 113 0.0 1.6 0.00 0.00 0.00 86 1017.7
20260901140021 28 122 0.0 4.8 0.00 0.00 0.00 88 1017.7
20260901135525 28 124 0.0 4.8 0.00 0.00 0.00 87 1017.7
20260901135018 28 185 0.0 1.6 0.00 0.00 0.00 88 1017.7
20260901134517 27 266 0.0 1.6 0.00 0.00 0.00 89 1017.6
20260901134015 27 264 0.0 1.6 0.00 0.00 0.00 90 1017.7
20260901133515 27 183 0.0 1.6 0.00 0.00 0.00 90 1017.7
20260901133018 27 173 0.0 4.8 0.00 0.00 0.00 91 1017.7
20260901132510 26 325 0.0 4.8 0.00 0.00 0.00 92 1017.6
20260901132010 26 172 0.0 1.6 0.00 0.00 0.00 94 1017.7
20260901131507 26 253 0.0 1.6 0.00 0.00 0.00 95 1017.6
20260901131006 26 253 0.0 1.6 0.00 0.00 0.00 95 1017.7
20260901130506 26 312 0.0 0.0 0.00 0.00 0.00 95 1017.7
20260901130004 26 312 0.0 1.6 0.00 0.00 0.00 95 1017.7
20260901125503 26 312 0.0 1.6 0.00 0.00 0.00 95 1017.8
20260901125001 26 332 0.0 1.6 0.00 0.00 0.00 95 1017.7
20260901124501 25 290 0.0 1.6 0.00 0.00 0.00 95 1017.6
20260901124059 25 290 0.0 1.6 0.00 0.00 0.00 95 1017.7
20260901123559 25 290 0.0 0.0 0.00 0.00 0.00 95 1017.6
20260901123157 25 290 0.0 0.0 0.00 0.00 0.00 95 1017.4
20260901122556 25 294 0.0 0.0 0.00 0.00 0.00 95 1017.5
20260901122054 25 294 0.0 0.0 0.00 0.00 0.00 95 1017.5
20260901121604 25 294 0.0 0.0 0.00 0.00 0.00 95 1017.4
20260901121052 25 294 0.0 0.0 0.00 0.00 0.00 95 1017.3
20260901120552 25 294 0.0 0.0 0.00 0.00 0.00 95 1017.3
20260901120055 25 326 0.0 0.0 0.00 0.00 0.00 95 1017.3
20260901115550 25 326 0.0 1.6 0.00 0.00 0.00 95 1017.1
20260901115049 25 326 0.0 1.6 0.00 0.00 0.00 95 1017.2
20260901114548 25 326 0.0 0.0 0.00 0.00 0.00 95 1017.1
20260901114047 25 326 0.0 0.0 0.00 0.00 0.00 95 1017.0
20260901113547 25 326 0.0 0.0 0.00 0.00 0.00 95 1017.0
20260901113146 24 326 0.0 0.0 0.00 0.00 0.00 95 1017.0
20260901112545 24 326 0.0 0.0 0.00 0.00 0.00 95 1016.8
20260901112043 24 326 0.0 0.0 0.00 0.00 0.00 95 1016.7
20260901111544 24 326 0.0 0.0 0.00 0.00 0.00 95 1016.7
20260901111045 24 326 0.0 0.0 0.00 0.00 0.00 95 1016.6
20260901110541 24 326 0.0 0.0 0.00 0.00 0.00 95 1016.6
20260901110041 24 326 0.0 0.0 0.00 0.00 0.00 95 1016.4
20260901105540 24 326 0.0 0.0 0.00 0.00 0.00 95 1016.4
20260901105038 24 326 0.0 0.0 0.00 0.00 0.00 95 1016.4
20260901104553 24 326 0.0 0.0 0.00 0.00 0.00 95 1016.3
20260901104038 24 326 0.0 0.0 0.00 0.00 0.00 95 1016.3
20260901103542 24 326 0.0 0.0 0.00 0.00 0.00 95 1016.3
20260901103036 24 326 0.0 0.0 0.00 0.00 0.00 95 1016.4
20260901102536 24 326 0.0 0.0 0.00 0.00 0.00 95 1016.2
20260901102035 24 326 0.0 0.0 0.00 0.00 0.00 95 1016.1
20260901101536 24 326 0.0 0.0 0.00 0.00 0.00 95 1016.2
20260901101033 24 326 0.0 0.0 0.00 0.00 0.00 95 1016.1
20260901100535 24 326 0.0 0.0 0.00 0.00 0.00 95 1016.1
20260901100036 24 326 0.0 0.0 0.00 0.00 0.00 95 1016.1
20260901095530 24 323 0.0 0.0 0.00 0.00 0.00 95 1016.1
20260901095031 24 323 0.0 0.0 0.00 0.00 0.00 95 1016.1
20260901094533 24 323 0.0 0.0 0.00 0.00 0.00 95 1016.0
20260901094030 24 323 0.0 0.0 0.00 0.00 0.00 95 1016.1
20260901093534 24 323 0.0 0.0 0.00 0.00 0.00 95 1016.0
20260901093129 24 323 0.0 0.0 0.00 0.00 0.00 95 1016.0
20260901092531 24 323 0.0 0.0 0.00 0.00 0.00 94 1016.0
20260901092026 24 323 0.0 0.0 0.00 0.00 0.00 94 1016.1
20260901091526 24 323 0.0 0.0 0.00 0.00 0.00 94 1015.9
20260901091024 24 323 0.0 0.0 0.00 0.00 0.00 94 1016.0
20260901090526 24 323 0.0 0.0 0.00 0.00 0.00 94 1015.9
20260901090022 24 323 0.0 0.0 0.00 0.00 0.00 94 1016.0
20260901085622 24 323 0.0 0.0 0.00 0.00 0.00 94 1015.9
20260901085021 24 323 0.0 0.0 0.00 0.00 0.00 94 1015.9
20260901084521 24 323 0.0 0.0 0.00 0.00 0.00 94 1015.9
20260901084021 24 323 0.0 0.0 0.00 0.00 0.00 94 1016.0
20260901083520 24 323 0.0 0.0 0.00 0.00 0.00 94 1015.9
20260901083024 24 323 0.0 0.0 0.00 0.00 0.00 94 1015.8
20260901082519 24 323 0.0 0.0 0.00 0.00 0.00 94 1015.9
20260901082019 24 323 0.0 0.0 0.00 0.00 0.00 94 1015.9
20260901081521 24 323 0.0 0.0 0.00 0.00 0.00 94 1015.8
20260901081017 24 323 0.0 0.0 0.00 0.00 0.00 94 1015.8
20260901080517 24 323 0.0 0.0 0.00 0.00 0.00 94 1015.9
20260901080016 24 323 0.0 0.0 0.00 0.00 0.00 94 1015.8
20260901075516 24 323 0.0 0.0 0.00 0.00 0.00 94 1015.9
20260901075015 24 323 0.0 0.0 0.00 0.00 0.00 94 1016.0
20260901074515 24 323 0.0 0.0 0.00 0.00 0.00 94 1015.9
20260901074012 24 323 0.0 0.0 0.00 0.00 0.00 94 1016.0
20260901073514 24 323 0.0 0.0 0.00 0.00 0.00 94 1016.1
20260901073012 24 323 0.0 0.0 0.00 0.00 0.00 94 1016.2
20260901072509 24 323 0.0 0.0 0.00 0.00 0.00 94 1016.2
20260901072013 24 323 0.0 0.0 0.00 0.00 0.00 94 1016.3
20260901071513 24 323 0.0 0.0 0.00 0.00 0.00 94 1016.3
20260901071006 24 323 0.0 0.0 0.00 0.00 0.00 94 1016.5
20260901070506 24 323 0.0 0.0 0.00 0.00 0.00 94 1016.5
20260901070005 24 323 0.0 0.0 0.00 0.00 0.00 94 1016.5
20260901065505 24 323 0.0 0.0 0.00 0.00 0.00 94 1016.6
20260901065007 24 323 0.0 0.0 0.00 0.00 0.00 94 1016.7
20260901064503 24 323 0.0 0.0 0.00 0.00 0.00 94 1016.6
20260901064003 24 323 0.0 0.0 0.00 0.00 0.00 94 1016.6
20260901063502 24 323 0.0 0.0 0.00 0.00 0.00 94 1016.6
20260901063001 24 323 0.0 0.0 0.00 0.00 0.00 94 1016.7
20260901062559 24 323 0.0 0.0 0.00 0.00 0.00 94 1016.7
20260901062058 24 323 0.0 0.0 0.00 0.00 0.00 94 1016.7
20260901061602 24 323 0.0 0.0 0.00 0.00 0.00 94 1016.8
20260901061056 24 323 0.0 0.0 0.00 0.00 0.00 94 1016.8
20260901060558 24 323 0.0 0.0 0.00 0.00 0.00 94 1016.8
20260901060055 24 323 0.0 0.0 0.00 0.00 0.00 94 1016.9
20260901055554 24 323 0.0 0.0 0.00 0.00 0.00 93 1017.0
20260901055052 24 323 0.0 0.0 0.00 0.00 0.00 93 1017.0
20260901054553 24 323 0.0 0.0 0.00 0.00 0.00 94 1017.1
20260901054051 24 323 0.0 0.0 0.00 0.00 0.00 93 1017.1
20260901053551 24 323 0.0 0.0 0.00 0.00 0.00 93 1017.0
20260901053103 25 323 0.0 0.0 0.00 0.00 0.00 93 1017.0
20260901052547 25 323 0.0 0.0 0.00 0.00 0.00 93 1017.1
20260901052050 25 323 0.0 0.0 0.00 0.00 0.00 93 1017.1
20260901051549 25 323 0.0 0.0 0.00 0.00 0.00 93 1017.1
20260901051047 25 323 0.0 0.0 0.00 0.00 0.00 93 1017.1
20260901050547 25 323 0.0 0.0 0.00 0.00 0.00 93 1017.0
20260901050043 25 323 0.0 0.0 0.00 0.00 0.00 93 1017.1
20260901045544 25 323 0.0 0.0 0.00 0.00 0.00 93 1017.2
20260901045042 25 323 0.0 0.0 0.00 0.00 0.00 93 1017.3
20260901044554 25 323 0.0 0.0 0.00 0.00 0.00 93 1017.2
20260901044043 25 323 0.0 0.0 0.00 0.00 0.00 93 1017.2
20260901043540 25 323 0.0 0.0 0.00 0.00 0.00 93 1017.3
20260901043039 25 323 0.0 0.0 0.00 0.00 0.00 93 1017.2
20260901042538 25 323 0.0 0.0 0.00 0.00 0.00 93 1017.3
20260901042036 25 323 0.0 0.0 0.00 0.00 0.00 93 1017.3
20260901041536 25 323 0.0 0.0 0.00 0.00 0.00 93 1017.4
20260901041036 25 323 0.0 0.0 0.00 0.00 0.00 93 1017.4
20260901040534 25 323 0.0 0.0 0.00 0.00 0.00 93 1017.5
20260901040037 25 323 0.0 0.0 0.00 0.00 0.00 93 1017.5
20260901035532 25 323 0.0 0.0 0.00 0.00 0.00 93 1017.5
20260901035034 25 323 0.0 0.0 0.00 0.00 0.00 93 1017.5
20260901034530 25 323 0.0 0.0 0.00 0.00 0.00 92 1017.4
20260901034030 25 323 0.0 0.0 0.00 0.00 0.00 92 1017.5
20260901033529 25 323 0.0 0.0 0.00 0.00 0.00 92 1017.5
20260901033029 25 323 0.0 0.0 0.00 0.00 0.00 92 1017.6
20260901032529 25 323 0.0 0.0 0.00 0.00 0.00 92 1017.6
20260901032028 25 323 0.0 0.0 0.00 0.00 0.00 92 1017.6
20260901031526 25 323 0.0 0.0 0.00 0.00 0.00 92 1017.5
20260901031025 25 323 0.0 0.0 0.00 0.00 0.00 92 1017.6
20260901030525 25 323 0.0 0.0 0.00 0.00 0.00 92 1017.6
20260901030024 25 323 0.0 0.0 0.00 0.00 0.00 92 1017.7
20260901025525 25 323 0.0 0.0 0.00 0.00 0.00 92 1017.7
20260901025023 25 323 0.0 0.0 0.00 0.00 0.00 92 1017.7
20260901024528 25 323 0.0 0.0 0.00 0.00 0.00 91 1017.7
20260901024024 25 323 0.0 0.0 0.00 0.00 0.00 91 1017.7
20260901023521 25 323 0.0 0.0 0.00 0.00 0.00 91 1017.7
20260901023022 25 323 0.0 0.0 0.00 0.00 0.00 91 1017.7
20260901022520 25 323 0.0 0.0 0.00 0.00 0.00 91 1017.7
20260901022020 26 323 0.0 0.0 0.00 0.00 0.00 91 1017.7
20260901021519 26 323 0.0 0.0 0.00 0.00 0.00 90 1017.6
20260901021019 26 323 0.0 0.0 0.00 0.00 0.00 91 1017.7
20260901020518 26 323 0.0 0.0 0.00 0.00 0.00 90 1017.6
20260901020018 26 323 0.0 0.0 0.00 0.00 0.00 90 1017.6
20260901015517 26 323 0.0 0.0 0.00 0.00 0.00 90 1017.7
20260901015018 26 323 0.0 0.0 0.00 0.00 0.00 90 1017.7